Regional Weather Roundup
Issued by NWS

Home | Current Version | Previous Version | Text Only | Print | Product List | Glossary Off
Versions: 1 2 3 4 5 6 7 8 9 10 11 12 13 14 15 16 17 18 19 20 21 22 23 24 25 26 27 28 29 30 31 32 33 34 35 36 37 38 39 40 41 42 43 44 45 46 47 48 49 50

000
ASUS43 KOAX 251602
RWRNE

WEATHER ROUNDUP FOR NEBRASKA
NATIONAL WEATHER SERVICE OMAHA NE
1100 AM CDT SAT OCT 25 2014

NOTES: SATELLITE DATA IS BEING USED TO AUGMENT CLOUD COVER ABOVE
       12000 FEET.
       "FAIR" INDICATES FEW OR NO CLOUDS BELOW 12,000 FEET WITH NO
       SIGNIFICANT WEATHER AND/OR OBSTRUCTIONS TO VISIBILITY.

  * THESE STATIONS DO NOT REPORT WEATHER SUCH AS RAIN...SNOW OR FOG.

NEZ001>004-019>022-054>056-251700-
NEBRASKA PANHANDLE

CITY           SKY/WX    TMP DP  RH WIND       PRES   REMARKS
SCOTTSBLUFF    SUNNY     55  32  41 CALM      30.19S
ALLIANCE       SUNNY     52  36  54 CALM      30.18S
CHADRON        SUNNY     46  38  73 CALM      30.18F
KIMBALL        SUNNY     65  34  31 W3        30.19S
SIDNEY         SUNNY     58  36  43 NW8       30.19S
$$

NEZ057>060-069>072-079>082-251700-
SOUTHWEST NEBRASKA

CITY           SKY/WX    TMP DP  RH WIND       PRES   REMARKS
NORTH PLATTE   SUNNY     56  43  61 CALM      30.15S
IMPERIAL         N/A     60  37  42 N7        30.15S
LEXINGTON      SUNNY     62  45  54 E7        30.13S
MCCOOK         SUNNY     58  45  62 E5        30.13S
OGALLALA       SUNNY     55  40  58 CALM      30.16F
$$

NEZ005>010-023>029-035>040-094-251700-
NORTH CENTRAL NEBRASKA

CITY           SKY/WX    TMP DP  RH WIND       PRES   REMARKS
VALENTINE      SUNNY     55  34  45 SE6       30.19R
AINSWORTH      SUNNY     57  35  43 E10       30.18S
BROKEN BOW     SUNNY     62  42  47 E9        30.15R
O`NEILL        SUNNY     61  38  43 NE9       30.17R
ORD            SUNNY     61  42  49 E7        30.14R
THEDFORD       SUNNY     59  37  44 E9        30.19R
$$

NEZ041-046>049-061>064-073>077-083>087-251700-
SOUTH CENTRAL NEBRASKA

CITY           SKY/WX    TMP DP  RH WIND       PRES   REMARKS
GRAND ISLAND   SUNNY     59  44  57 E8        30.14S
AURORA         SUNNY     62  44  51 NE7       30.13R
HASTINGS       SUNNY     62  43  49 E8        30.12S
HEBRON         SUNNY     64  49  59 NE5       30.11S
HOLDREGE       SUNNY     61  46  57 CALM      30.13R
KEARNEY *      SUNNY     61  45  55 NE10      30.14R
YORK           SUNNY     59  48  67 E9        30.13S
$$

NEZ011>018-030>034-042>045-251700-
NORTHEAST NEBRASKA

CITY           SKY/WX    TMP DP  RH WIND       PRES   REMARKS
NORFOLK        SUNNY     61  42  49 E7        30.14R
ALBION         SUNNY     61  40  45 E8        30.15R
BLAIR          SUNNY     63  41  44 NE9       30.12S
COLUMBUS *     SUNNY     63  43  48 E10       30.15S
FREMONT        SUNNY     63  42  45 E9        30.13S
TEKAMAH        SUNNY     62  46  55 N6        30.13S
WAYNE          SUNNY     62  43  49 NE7       30.15R
$$

NEZ050>053-065>068-078-088>093-251700-
SOUTHEAST NEBRASKA

CITY           SKY/WX    TMP DP  RH WIND       PRES   REMARKS
LINCOLN        SUNNY     63  46  54 E8        30.13S
OMAHA EPPLEY   MOSUNNY   60  49  66 N3        30.12F
BEATRICE       SUNNY     65  51  61 NE6       30.11R
FALLS CITY     SUNNY     68  53  58 NE7       30.09S
NEBRASKA CITY  SUNNY     63  43  47 E8        30.11S
PLATTSMOUTH    SUNNY     62  43  50 E6        30.11S
$$

NEZ044-045-051>053-067-251700-
OMAHA AREA

CITY           SKY/WX    TMP DP  RH WIND       PRES   REMARKS
OMAHA EPPLEY   MOSUNNY   60  49  66 N3        30.12F
BLAIR          SUNNY     63  41  44 NE9       30.12S
FREMONT        SUNNY     63  42  45 E9        30.13S
OFFUTT AFB     SUNNY     62  55  77 NE3       30.11F
PLATTSMOUTH    SUNNY     62  43  50 E6        30.11S
WAHOO          FAIR      64  39  41 E12       30.12F
$$



USA.gov is the U.S. government's official web portal to all federal, state and local government web resources and services.